Friday Harbor, WA
on Sunday, December 30, 2012

Sunday
Previous Day Next Day
Daily Summary
 ActualAverageRecord
Temperature
Mean Temperature °F °F  
Max Temperature 39°F 43°F 52°F (1997)
Min Temperature 30°F 34°F 27°F (2010)
Degree Days
Heating Degree Days 30    
Moisture
Dew Point 34°F   
Average Humidity 93    
Maximum Humidity 100    
Minimum Humidity 86    
Precipitation
Precipitation 0.00 in in in ()
Wind
Wind Speed 0 mph   
Max Wind Speed 5 mph   
Max Gust Speed mph   
Visibility 8 miles   
Events     
Averages and records for this station are not official NWS values.
Key: T is trace of precipitation, MM is missing value
Source: NWS Daily Summary
Seasonal Weather Averages
Time(PST)TemperatureDew PointHumidity Pressure Visibility Wind DirectionWind SpeedGust SpeedPrecipitationEvents Conditions
12:35 AM 35.6°F 33.8°F 93% 30.25 in 10.0 miles Calm Calm - N/A   Scattered Clouds
12:53 AM 34.0°F 34.0°F 100% 30.26 in 6.0 miles Calm Calm - N/A   Partly Cloudy
1:08 AM 32.0°F 30.2°F 93% 30.26 in 2.0 miles Calm Calm - N/A   Partly Cloudy
1:15 AM 33.8°F 30.2°F 87% 30.26 in 1.8 miles Calm Calm - N/A   Mostly Cloudy
1:21 AM 33.8°F 33.8°F 100% 30.26 in 3.0 miles Calm Calm - N/A   Mostly Cloudy
1:28 AM 33.8°F 33.8°F 100% 30.26 in 4.0 miles Calm Calm - N/A   Mostly Cloudy
1:36 AM 33.8°F 33.8°F 100% 30.26 in 4.0 miles Calm Calm - N/A   Scattered Clouds
1:53 AM 35.1°F 34.0°F 96% 30.26 in 7.0 miles Calm Calm - N/A   Clear
2:53 AM 33.1°F 30.9°F 92% 30.27 in 6.0 miles Calm Calm - N/A   Clear
3:13 AM 33.8°F 32.0°F 93% 30.28 in 6.0 miles Calm Calm - N/A   Mostly Cloudy
3:53 AM 34.0°F 33.1°F 96% 30.29 in 5.0 miles Calm Calm - N/A   Overcast
4:53 AM 36.0°F 35.1°F 97% 30.29 in 10.0 miles Calm Calm - N/A   Overcast
5:28 AM 35.6°F 33.8°F 93% 30.28 in 9.0 miles Calm Calm - N/A   Scattered Clouds
5:53 AM 34.0°F 32.0°F 92% 30.29 in 10.0 miles Calm Calm - N/A   Clear
6:53 AM 30.9°F 30.0°F 96% 30.29 in 8.0 miles Calm Calm - N/A   Clear
7:53 AM 30.0°F 28.9°F 96% 30.30 in 7.0 miles Calm Calm - N/A   Clear
8:46 AM 32.0°F 30.2°F 93% 30.31 in 5.0 miles Calm Calm - N/A   Mostly Cloudy
8:53 AM 32.0°F 30.9°F 96% 30.32 in 5.0 miles Calm Calm - N/A   Mostly Cloudy
9:12 AM 33.8°F 32.0°F 93% 30.32 in 4.0 miles Calm Calm - N/A   Overcast
9:53 AM 36.0°F 35.1°F 97% 30.33 in 9.0 miles Calm Calm - N/A   Overcast
10:00 AM 37.4°F 35.6°F 93% 30.33 in 10.0 miles Calm Calm - N/A   Overcast
10:16 AM 37.4°F 35.6°F 93% 30.33 in 10.0 miles Calm Calm - N/A   Overcast
10:53 AM 37.9°F 36.0°F 93% 30.34 in 10.0 miles Calm Calm - N/A   Overcast
11:53 AM 39.0°F 36.0°F 89% 30.33 in 10.0 miles Calm Calm - N/A   Overcast
12:03 PM 39.2°F 35.6°F 87% 30.32 in 10.0 miles NE 3.5 mph - N/A   Overcast
12:53 PM 39.0°F 35.1°F 86% 30.32 in 10.0 miles Calm Calm - N/A   Overcast
1:14 PM 39.2°F 35.6°F 87% 30.31 in 10.0 miles ENE 4.6 mph - N/A   Overcast
1:32 PM 39.2°F 35.6°F 87% 30.31 in 10.0 miles ENE 3.5 mph - N/A   Overcast
1:53 PM 39.0°F 35.1°F 86% 30.32 in 10.0 miles East 3.5 mph - N/A   Overcast
2:10 PM 39.2°F 35.6°F 87% 30.31 in 10.0 miles Calm Calm - N/A   Overcast
2:53 PM 39.0°F 35.1°F 86% 30.32 in 10.0 miles Calm Calm - N/A   Overcast
3:53 PM 39.0°F 35.1°F 86% 30.31 in 10.0 miles Calm Calm - N/A   Overcast
4:19 PM 39.2°F 35.6°F 87% 30.30 in 10.0 miles Calm Calm - N/A   Overcast
4:53 PM 37.9°F 35.1°F 89% 30.30 in 10.0 miles Calm Calm - N/A   Overcast
5:26 PM 37.4°F 35.6°F 93% 30.29 in 10.0 miles Calm Calm - N/A   Mostly Cloudy
5:53 PM 37.0°F 35.1°F 93% 30.30 in 10.0 miles Calm Calm - N/A   Overcast
6:04 PM 37.4°F 35.6°F 93% 30.30 in 10.0 miles Calm Calm - N/A   Overcast
6:53 PM 35.1°F 33.1°F 92% 30.30 in 10.0 miles Calm Calm - N/A   Mostly Cloudy
7:08 PM 35.6°F 33.8°F 93% 30.30 in 10.0 miles Calm Calm - N/A   Mostly Cloudy
7:16 PM 33.8°F 33.8°F 100% 30.30 in 10.0 miles Calm Calm - N/A   Mostly Cloudy
7:32 PM 33.8°F 32.0°F 93% 30.29 in 10.0 miles Calm Calm - N/A   Scattered Clouds
7:53 PM 33.1°F 30.9°F 92% 30.30 in 10.0 miles Calm Calm - N/A   Clear
8:43 PM 33.8°F 32.0°F 93% 30.30 in 10.0 miles Calm Calm - N/A   Scattered Clouds
8:53 PM 34.0°F 32.0°F 92% 30.30 in 10.0 miles Calm Calm - N/A   Scattered Clouds
9:06 PM 33.8°F 33.8°F 100% 30.30 in 10.0 miles Calm Calm - N/A   Mostly Cloudy
9:21 PM 33.8°F 33.8°F 100% 30.30 in 10.0 miles Calm Calm - N/A   Overcast
9:53 PM 36.0°F 34.0°F 93% 30.30 in 10.0 miles Calm Calm - N/A   Overcast
10:40 PM 35.6°F 33.8°F 93% 30.30 in 10.0 miles Calm Calm - N/A   Mostly Cloudy
10:53 PM 36.0°F 33.1°F 89% 30.31 in 10.0 miles ENE 3.5 mph - N/A   Scattered Clouds
11:53 PM 35.1°F 33.1°F 92% 30.31 in 10.0 miles Calm Calm - N/A   Clear
Moon Phase
Dec. 30 Jan. 04 Jan. 11 Jan. 18 Jan. 26
Sunrise:08:04 AM (PST) Moon Rise:07:16 PM (PST)12/30
Sunset:04:25 PM (PST) Moon Set:09:04 AM (PST)12/30

Copyright © 2014 The Weather Underground, Inc.